Wind_Speed
1 1 2 4 5 6 5 6 7 9 10 11 11 12 13 14 15 15 16 17 18 20 20 21 22 22 22 22 23 24 26 26 26 27 28 28 26 26 26 28 28 28 28 29
3 2 3 4 5 5 5 5 6 8 9 10 10 11 12 13 14 15 16 17 18 20 21 22 23 23 23 23 24 24 26 26 26 26 27 27 25 26 28 29 28 28 29 29
3 4 5 5 6 6 6 7 7 8 9 9 9 10 11 14 15 16 16 18 19 21 21 22 22 23 23 24 25 25 26 25 25 25 26 26 26 27 27 29 28 29 28 28
4 5 5 6 7 7 8 8 9 8 8 9 10 11 13 15 16 17 17 17 18 20 20 21 21 22 22 23 24 25 25 25 24 25 26 27 27 27 28 28 29 29 29 29
7 7 7 7 8 8 9 9 9 10 10 11 12 12 14 15 16 16 16 17 18 19 20 20 20 20 21 22 24 24 24 23 24 25 26 27 27 27 28 29 29 29 28 28
9 9 9 9 9 9 10 10 10 11 11 12 12 12 13 14 15 15 15 16 17 18 19 19 19 20 20 21 22 23 23 23 24 25 26 26 26 27 28 29 29 28 27 26
10 10 10 9 9 9 9 9 10 9 10 11 13 13 14 14 15 15 15 16 16 17 18 19 19 19 20 21 21 22 22 22 23 24 24 25 26 27 27 27 28 27 27 26
10 11 11 10 10 11 11 10 10 11 12 12 13 14 15 15 15 16 16 16 16 16 17 18 19 19 19 20 20 20 20 22 23 23 23 23 25 25 26 26 26 26 25 24
12 12 12 12 12 12 12 12 13 13 14 14 14 15 16 16 15 17 17 17 17 17 17 18 18 18 18 19 20 20 20 22 22 22 22 23 23 24 24 24 24 23 23 23
13 13 13 14 13 13 14 14 14 13 14 14 15 15 17 18 17 18 18 18 17 17 18 18 18 18 17 18 19 18 20 20 21 21 21 22 22 22 22 22 22 22 22 22
14 14 15 16 15 16 16 15 15 15 15 15 17 17 18 19 19 19 18 18 17 17 18 18 19 19 18 18 18 19 19 20 20 20 21 21 21 20 20 20 20 20 21 21
15 15 16 17 18 18 18 17 17 17 17 17 18 19 19 20 20 19 19 19 18 19 19 20 20 20 19 19 19 19 19 20 19 19 19 19 19 19 19 19 19 19 20 21
17 17 17 17 18 19 20 19 19 19 20 19 19 20 20 21 21 20 19 19 19 20 20 21 21 21 20 20 19 19 19 19 18 19 18 18 19 19 19 18 18 19 20 20
19 19 18 18 19 20 21 21 21 20 21 21 21 21 21 22 21 21 21 20 20 21 21 21 22 22 21 20 20 19 18 18 18 18 17 18 18 18 18 18 18 19 19 19
20 19 19 20 20 21 22 21 21 21 21 22 22 23 24 22 22 21 21 21 20 21 21 22 22 22 20 19 19 19 18 18 18 18 17 18 17 17 18 18 19 19 18 19
20 20 20 20 20 21 22 21 20 21 22 22 22 22 23 22 22 21 21 20 21 21 21 21 21 21 20 19 19 18 19 19 18 18 18 18 18 18 18 19 19 19 18 18
20 21 21 21 21 21 21 20 20 20 21 21 21 22 22 22 22 21 21 21 21 20 20 20 20 19 19 18 19 18 18 17 17 17 17 17 18 18 18 18 19 19 18 18
21 21 22 22 21 21 21 21 20 20 20 20 20 21 22 22 21 21 21 21 20 20 19 18 18 17 18 18 18 18 18 17 16 17 17 17 18 18 18 18 18 18 18 18
22 21 22 22 21 22 22 21 20 19 20 20 19 19 20 20 20 20 20 20 20 19 19 18 18 18 17 17 17 17 16 16 16 16 16 17 16 16 17 17 18 18 18 18
22 22 22 21 21 21 22 21 19 19 19 19 19 19 18 18 18 18 19 19 19 19 19 18 18 18 17 17 16 16 16 15 15 15 15 16 16 16 16 16 17 17 17 17
22 23 22 21 21 22 22 20 19 19 19 18 18 18 18 18 19 18 19 19 19 19 19 18 17 17 16 16 15 15 14 14 15 14 14 14 15 14 14 14 14 15 16 16
22 23 23 22 22 22 21 19 19 18 18 18 18 18 18 18 19 19 19 19 19 18 18 17 16 16 14 13 13 13 12 12 12 11 11 12 13 12 11 12 13 13 14 14
22 23 23 23 22 21 20 19 19 19 19 19 19 18 19 19 19 19 18 18 17 16 16 15 15 14 13 12 11 11 11 10 10 10 10 11 11 10 10 10 12 12 13 13
23 23 23 22 21 20 19 19 19 20 20 20 19 19 19 19 18 18 17 16 15 14 13 14 13 12 11 11 10 10 9 9 8 9 9 9 9 9 9 9 10 11 12 12
23 23 22 21 20 20 19 19 19 19 19 19 19 19 18 17 16 15 15 14 13 12 11 11 11 10 9 8 8 7 7 7 7 7 8 7 8 8 8 9 10 11 12 13
23 23 21 20 20 19 18 18 18 19 18 18 18 17 17 16 15 14 13 12 11 11 10 9 9 9 8 7 6 6 6 6 6 6 6 6 7 7 8 9 10 11 12 12
Wind_Direction
44 137 220 223 221 227 237 238 245 245 252 256 260 263 267 269 270 271 272 275 278 279 281 283 286 286 287 287 286 286 287 288 289 289 291 292 291 290 289 290 290 289 289 289
353 282 251 257 251 252 249 246 249 252 257 262 266 270 269 273 274 280 281 280 280 281 281 283 285 286 286 286 287 288 288 289 290 290 293 294 293 292 291 291 291 290 289 290
316 277 268 261 264 259 264 255 251 256 262 270 279 282 279 276 281 283 285 283 284 284 283 284 283 284 285 285 286 287 289 289 289 289 291 292 294 293 292 292 295 294 291 291
302 291 275 269 269 268 269 266 263 263 269 271 273 280 283 279 284 285 285 285 285 285 285 285 285 286 285 285 287 289 290 291 291 290 291 295 297 295 295 294 297 296 292 292
297 292 286 277 278 278 278 275 275 277 279 277 279 278 284 283 284 284 283 284 284 285 285 286 286 287 286 286 288 291 291 292 293 293 293 295 296 296 298 297 297 298 295 294
303 297 287 284 286 282 281 282 283 286 286 282 280 278 284 286 286 286 284 284 284 286 285 287 287 286 285 286 289 292 292 293 294 294 294 294 295 296 299 300 300 302 298 296
303 298 291 286 286 291 292 289 291 290 286 283 282 281 282 290 290 290 287 286 286 286 286 286 287 287 285 287 290 293 293 293 294 294 295 295 296 297 300 302 302 302 300 296
296 293 289 288 287 287 288 288 284 282 283 283 284 285 287 293 293 293 292 292 289 288 287 287 289 289 289 289 292 293 294 295 294 295 297 298 300 301 303 303 303 302 301 298
293 290 291 290 290 291 289 283 283 284 289 289 288 287 288 293 293 292 291 290 289 287 287 290 292 292 294 293 294 295 295 297 297 296 297 301 302 304 305 306 307 305 303 301
293 294 295 294 293 292 292 290 284 283 288 287 288 290 291 294 294 291 288 288 287 287 289 290 289 293 293 296 297 297 298 298 298 298 300 302 304 305 305 307 310 310 308 306
300 299 297 294 293 294 293 291 290 289 284 286 289 288 289 291 295 294 292 293 292 293 293 294 293 292 292 295 296 297 299 300 300 301 301 303 305 305 306 308 312 313 312 310
298 299 297 293 293 292 292 292 291 288 289 288 289 290 291 290 292 294 295 294 294 294 293 293 293 294 294 294 293 296 297 298 298 300 303 306 307 306 309 312 314 315 314 315
297 297 299 298 295 293 293 293 291 288 286 287 288 289 290 290 292 293 295 293 292 293 293 293 292 292 294 293 292 294 295 296 297 300 304 308 308 308 311 313 316 317 318 318
296 298 298 294 292 292 292 292 289 287 286 288 287 286 287 288 290 291 291 291 291 292 293 294 291 290 289 292 294 294 294 295 296 299 302 307 310 311 313 315 317 319 321 321
299 299 300 299 296 295 295 295 293 288 284 284 284 285 286 288 289 290 289 289 290 292 293 294 293 291 290 291 293 293 292 296 298 299 302 306 310 313 314 316 318 321 323 325
300 300 301 302 300 298 298 297 293 289 287 286 284 284 286 287 287 288 288 289 289 291 291 292 292 292 290 291 293 292 292 295 296 297 301 306 309 312 315 318 319 320 322 325
302 301 302 303 303 300 299 297 293 290 290 289 288 288 289 290 289 288 288 289 290 292 290 288 290 290 287 286 287 288 291 294 295 296 300 302 305 309 313 317 319 323 325 324
301 302 304 305 304 301 299 296 294 292 291 289 288 287 288 288 287 288 288 290 292 293 293 293 292 291 288 286 284 284 287 289 293 295 297 300 301 307 313 316 320 323 325 324
301 302 304 305 303 301 300 299 297 293 291 289 290 288 287 286 284 285 287 288 290 293 293 293 292 291 289 288 285 283 284 287 290 293 297 301 303 307 311 316 319 322 324 325
300 301 303 302 302 301 300 298 297 295 294 294 294 291 289 286 284 284 284 287 288 290 291 291 291 290 290 288 285 284 286 287 288 292 296 299 303 306 308 314 318 323 326 327
300 301 302 302 301 300 299 296 293 293 294 295 293 289 287 286 287 286 286 287 287 289 291 292 291 289 289 287 283 284 284 286 289 291 295 299 305 306 309 313 319 323 326 328
299 300 302 303 302 299 297 293 290 289 293 293 289 288 286 286 286 285 288 287 286 287 290 291 292 289 288 283 280 280 283 287 289 291 295 302 308 309 313 318 322 325 328 329
297 299 300 299 298 295 293 291 287 286 289 291 290 289 288 287 287 287 290 290 288 287 290 290 291 290 286 279 277 278 284 288 291 293 293 301 306 313 321 324 325 326 328 333
297 297 298 298 296 293 293 291 287 286 288 290 287 289 289 287 285 285 289 288 284 285 287 290 290 289 284 278 275 276 285 289 293 294 295 304 311 317 322 327 332 336 338 337
298 297 298 297 294 293 292 291 287 286 288 289 287 288 288 286 286 286 288 284 281 282 287 291 290 286 286 278 274 274 284 289 296 300 302 308 318 324 331 336 337 337 339 340
295 295 296 296 295 294 293 291 287 287 288 288 286 285 282 283 286 287 285 283 281 284 285 287 286 282 287 281 275 274 285 293 300 302 311 318 322 332 340 341 340 339 339 340
Height
5850 5852 5852 5852 5853 5854 5854 5855 5856 5856 5855 5856 5857 5857 5857 5856 5856 5856 5855 5855 5854 5854 5853 5852 5851 5850 5848 5847 5845 5843 5841 5839 5836 5834 5831 5829 5827 5825 5823 5821 5818 5816 5814 5812
5851 5852 5852 5851 5852 5852 5853 5854 5854 5854 5853 5854 5854 5854 5854 5853 5853 5852 5852 5851 5850 5849 5848 5847 5846 5845 5843 5842 5840 5838 5836 5833 5831 5828 5826 5824 5821 5819 5817 5814 5812 5810 5807 5805
5851 5851 5850 5850 5851 5851 5851 5852 5852 5852 5852 5852 5852 5852 5852 5851 5849 5849 5848 5847 5846 5844 5843 5842 5841 5840 5838 5837 5835 5833 5830 5828 5825 5823 5821 5818 5816 5814 5811 5808 5806 5803 5801 5798
5850 5849 5849 5849 5849 5849 5849 5850 5849 5849 5850 5850 5850 5851 5849 5847 5846 5845 5844 5842 5841 5839 5838 5837 5836 5835 5833 5831 5829 5827 5825 5822 5820 5818 5815 5813 5810 5808 5805 5802 5799 5797 5794 5791
5848 5848 5847 5847 5847 5847 5847 5847 5847 5847 5847 5847 5847 5847 5847 5844 5842 5841 5840 5838 5837 5835 5833 5832 5831 5830 5828 5826 5824 5822 5820 5818 5815 5813 5810 5808 5805 5802 5799 5796 5793 5790 5787 5785
5847 5846 5845 5845 5844 5844 5844 5845 5844 5844 5845 5845 5845 5844 5844 5840 5838 5837 5835 5834 5832 5830 5829 5827 5826 5825 5823 5821 5819 5817 5815 5813 5810 5808 5806 5803 5800 5797 5793 5790 5787 5784 5781 5778
5845 5844 5842 5842 5842 5842 5842 5843 5843 5844 5844 5844 5841 5840 5839 5836 5834 5833 5831 5829 5828 5826 5825 5823 5822 5820 5819 5817 5815 5813 5810 5808 5806 5803 5800 5797 5795 5791 5788 5785 5782 5778 5775 5772
5843 5843 5841 5839 5839 5839 5839 5840 5841 5841 5841 5840 5838 5836 5835 5832 5830 5828 5827 5825 5824 5822 5821 5819 5817 5816 5814 5812 5810 5808 5806 5803 5801 5798 5795 5792 5789 5786 5783 5779 5776 5772 5769 5766
5840 5840 5838 5837 5836 5836 5836 5836 5836 5836 5835 5835 5834 5832 5830 5828 5826 5824 5823 5821 5820 5818 5817 5815 5813 5811 5810 5808 5805 5803 5801 5799 5796 5793 5790 5787 5784 5781 5778 5774 5771 5767 5764 5761
5836 5835 5835 5834 5833 5833 5832 5831 5831 5831 5830 5830 5830 5828 5826 5823 5821 5820 5818 5817 5815 5814 5812 5810 5808 5807 5805 5803 5801 5799 5796 5794 5791 5788 5786 5783 5779 5776 5773 5770 5767 5763 5759 5756
5832 5832 5832 5830 5829 5828 5828 5827 5825 5825 5825 5825 5824 5826 5821 5818 5816 5815 5813 5812 5810 5809 5807 5805 5803 5802 5800 5798 5796 5794 5792 5789 5787 5784 5781 5778 5775 5772 5769 5766 5762 5759 5755 5751
5828 5828 5827 5826 5824 5823 5822 5822 5821 5820 5820 5819 5818 5820 5814 5813 5811 5809 5808 5807 5805 5804 5802 5800 5798 5797 5795 5793 5791 5790 5787 5785 5782 5780 5777 5774 5771 5768 5765 5761 5758 5754 5751 5747
5824 5823 5822 5822 5822 5819 5817 5816 5815 5814 5813 5812 5813 5814 5808 5807 5806 5804 5802 5801 5800 5799 5797 5795 5793 5792 5790 5788 5787 5785 5782 5780 5778 5775 5772 5770 5767 5764 5761 5757 5754 5750 5747 5743
5819 5818 5818 5817 5815 5813 5811 5810 5809 5808 5806 5806 5806 5805 5803 5801 5800 5798 5797 5796 5795 5793 5792 5790 5788 5786 5785 5783 5781 5779 5778 5775 5773 5771 5768 5766 5763 5760 5757 5754 5750 5747 5743 5740
5814 5814 5812 5810 5809 5807 5805 5804 5802 5801 5800 5799 5799 5797 5796 5795 5794 5792 5791 5790 5789 5788 5786 5784 5782 5780 5779 5777 5776 5774 5772 5770 5768 5766 5764 5761 5759 5756 5754 5751 5747 5743 5740 5737
5809 5808 5807 5805 5803 5800 5799 5798 5796 5795 5793 5792 5792 5791 5789 5788 5787 5786 5785 5784 5783 5782 5780 5778 5776 5775 5773 5772 5770 5769 5767 5765 5764 5762 5760 5758 5755 5753 5750 5747 5744 5741 5737 5734
5804 5803 5801 5800 5797 5794 5793 5792 5790 5789 5787 5786 5785 5785 5783 5782 5781 5780 5778 5777 5776 5775 5774 5772 5771 5769 5767 5766 5765 5763 5762 5760 5759 5757 5755 5754 5752 5749 5747 5744 5741 5738 5734 5731
5799 5797 5795 5793 5792 5790 5789 5785 5784 5783 5781 5779 5778 5778 5777 5775 5774 5773 5772 5771 5770 5769 5767 5766 5764 5763 5762 5760 5759 5758 5756 5755 5754 5753 5751 5749 5748 5746 5743 5740 5738 5734 5731 5728
5794 5792 5790 5788 5786 5784 5782 5779 5778 5776 5775 5773 5772 5771 5770 5769 5768 5767 5766 5765 5764 5762 5761 5759 5758 5756 5755 5754 5753 5752 5751 5750 5750 5748 5747 5745 5744 5742 5740 5737 5734 5731 5728 5725
5789 5787 5785 5782 5780 5778 5777 5773 5772 5771 5769 5767 5766 5764 5764 5763 5762 5762 5760 5759 5758 5756 5755 5753 5752 5750 5749 5748 5747 5747 5746 5746 5745 5744 5742 5741 5740 5738 5736 5734 5731 5728 5725 5722
5783 5781 5779 5776 5774 5772 5770 5767 5766 5766 5764 5762 5760 5759 5758 5757 5756 5755 5754 5752 5751 5749 5748 5747 5746 5744 5744 5743 5742 5742 5741 5741 5740 5739 5738 5736 5735 5734 5732 5730 5728 5725 5723 5720
5777 5775 5772 5770 5768 5768 5763 5761 5760 5759 5757 5755 5754 5753 5752 5751 5750 5749 5747 5746 5744 5743 5742 5741 5740 5739 5738 5738 5737 5737 5736 5736 5735 5735 5734 5733 5731 5730 5728 5727 5725 5723 5720 5717
5771 5769 5766 5765 5764 5760 5757 5755 5754 5752 5751 5749 5748 5747 5746 5745 5744 5743 5742 5740 5738 5737 5736 5735 5734 5734 5733 5733 5733 5733 5733 5732 5731 5731 5730 5729 5728 5727 5725 5724 5722 5720 5717 5715
5764 5761 5759 5757 5756 5753 5751 5749 5748 5746 5745 5743 5742 5741 5740 5738 5737 5737 5736 5734 5733 5732 5731 5730 5729 5729 5729 5728 5729 5729 5729 5728 5728 5727 5727 5726 5725 5724 5723 5721 5720 5717 5715 5713
5757 5755 5753 5751 5750 5748 5746 5744 5742 5740 5739 5737 5736 5735 5733 5732 5731 5731 5730 5729 5728 5728 5727 5726 5725 5725 5725 5725 5725 5725 5726 5725 5725 5725 5724 5723 5723 5722 5721 5719 5717 5715 5713 5711
5751 5748 5746 5745 5743 5741 5740 5738 5736 5735 5733 5732 5731 5729 5728 5726 5726 5725 5725 5725 5724 5724 5723 5723 5722 5722 5722 5722 5722 5723 5723 5723 5722 5722 5721 5721 5720 5720 5719 5717 5715 5713 5711 5709